www.pogodaiklimat.ru

Архив погоды в Великом Новгороде (Новгородская область, Россия)

Время
(UTC), дата
06 24.02
09 24.02
12 24.02
15 24.02
18 24.02
21 24.02
00 25.02
03 25.02
06 25.02
09 25.02
12 25.02
15 25.02
18 25.02
21 25.02
00 26.02
03 26.02
06 26.02
09 26.02
12 26.02
15 26.02
18 26.02
21 26.02
00 27.02
03 27.02
06 27.02
09 27.02
12 27.02
15 27.02
18 27.02
21 27.02
00 28.02
03 28.02
06 28.02
09 28.02
12 28.02
15 28.02
18 28.02
21 28.02
00 29.02
03 29.02
06 29.02
09 29.02
12 29.02
15 29.02
18 29.02
21 29.02
00 1.03
03 1.03
06 1.03
09 1.03
12 1.03
15 1.03
18 1.03
21 1.03
00 2.03
Ветер
(напр.,м/с)
Видим. Явления Облачность Т
(С)
Тd
(С)
f
(%)
Тe
(С)
Тes
(С)
Комфортность P
(гПа)
Po
(гПа)
Тmin
(С)
Tmax
(С)
R
(мм)
R24
(мм)
S
(см)
Ю 3 4000 м слаб. дождь 10/10 300 м [Ns] +1.7 +1.6 99 -3 -3 тепло 1013.6 1010.4 +1.6 8 31
Ю 4 10 км {дождь} 10/10 300 м [Sc] +1.9 +1.8 99 -3 -3 тепло 1013.7 1010.5
Ю 4 4000 м слаб. морось {дождь} 10/10 300 м [St] +2.7 +2.4 98 -2 -2 по сезону 1013.2 1010.0
Ю 5 10 км {дождь, морось} 10/10 300 м [Sc] +2.6 +2.1 97 -3 -3 по сезону 1012.7 1009.5 2
Ю 4 4000 м слаб. дождь {морось} 10/10 300 м [Ns] +2.2 +1.8 97 -3 -3 по сезону 1012.0 1008.8 +2.8 0.5
Ю 5 {10} 4000 м слаб. дождь {морось} 10/10 300 м [Ns] +2.8 +2.3 97 -3 -3 тепло 1011.3 1008.1
Ю 7-10 {11} 10 км {дождь, морось} 10/10 300 м [Sc] +3.4 +2.4 93 -3 -3 тепло 1011.4 1008.2
ЮЗ 2 {10} 10 км 10/10 300 м [Sc] +3.8 +1.1 83 +1 +1 тепло 1014.4 1011.2 +2.2 2
ЮЗ 2 {10} 20 км 10/10 600 м [Sc] +2.8 +0.6 85 -0 -0 тепло 1018.1 1014.9 +2.2 2 26
Ю 2 20 км 9/6 600 м [Sc Ac As] +3.7 +0.6 80 +1 +2 тепло 1019.9 1016.7
ЮВ 2 20 км 9/9 600 м [Sc] +4.8 +0.8 75 +2 +3 тепло 1019.5 1016.3
В 1 10 км 10/10 600 м [Sc] +3.9 +0.9 81 +3 +3 тепло 1018.6 1015.4
Ю 4 4000 м слаб. ливневой дождь 10/10 300 м [Cb cap] +2.9 +2.7 99 -2 -2 тепло 1018.4 1015.2 +5.3 2
Ю 4 4000 м слаб. снег {ливн. снег} 10/10 300 м [Sc] +2.0 +1.9 99 -3 -3 тепло 1017.4 1014.1
Ю 3 4000 м слаб. снег {ливн. снег} 10/10 300 м [Ns] +1.4 +1.4 100 -3 -3 тепло 1017.3 1014.0
Ю 3 4000 м слаб. дождь {снег} 10/10 300 м [Ns] +1.4 +1.4 100 -3 -3 тепло 1016.2 1013.0 +1.4 4
Ю 3 4000 м слаб. дождь со снегом 10/10 300 м [Ns] +1.0 +1.0 100 -4 -4 тепло 1015.7 1012.5 +0.9 4 23
Ю 3 2000 м слаб. дождь {снег} 10/10 300 м [Ns] +1.1 +1.1 100 -4 -3 по сезону 1015.4 1012.2
Ю 3 1000 м слаб. морось {снег, дождь} 10/10 200 м [St] +1.6 +1.6 100 -3 -3 по сезону 1015.5 1012.3
Ю 3 2000 м слаб. дождь {снег} 10/10 300 м [Ns] +1.4 +1.4 100 -3 -3 по сезону 1016.1 1012.9 6
Ю 3 4000 м дымка {дождь, снег} 10/10 300 м [Sc] +0.7 +0.7 100 -4 -4 по сезону 1016.8 1013.5 +1.7 5
Ю 2 4000 м дымка 10/10 300 м [Sc] +0.8 +0.8 100 -3 -3 тепло 1017.8 1014.6
Ю 3 4000 м слаб. дождь 10/10 300 м [Ns] +1.1 +1.1 100 -4 -4 по сезону 1018.9 1015.7
Ю 3 1000 м дымка {дождь} 10/10 300 м [Sc] +1.3 +1.3 100 -3 -3 тепло 1019.4 1016.1 +0.6 1
Ю 3 200 м туман, небо видно {морось} 10/10 200 м [St] +1.4 +1.4 100 -3 -3 тепло 1020.4 1017.2 +0.6 0.1 20
Ю 3 500 м туман, небо видно 10/10 200 м [St] +1.8 +1.8 100 -3 -3 по сезону 1020.9 1017.7
Ю 2 1000 м слаб. дождь {туман} туман 10/10 300 м [Ns] +2.0 +2.0 100 -2 -1 по сезону 1020.5 1017.2
Ю 2 1000 м слаб. дождь 10/10 300 м [Ns] +2.1 +2.1 100 -1 -1 тепло 1020.1 1016.8 5
штиль 0 4000 м слаб. дождь 10/10 300 м [Ns] +1.8 +1.8 100 0 0 тепло 1019.4 1016.2 +2.4 10
штиль 0 1000 м слаб. дождь 10/10 300 м [Ns] +1.4 +1.4 100 0 0 тепло 1019.1 1015.9
СВ 2 1000 м слаб. дождь {туман} 10/10 300 м [Ns] +1.2 +1.2 100 -3 -3 по сезону 1019.0 1015.8
штиль 0 4000 м дымка {дождь, морось} 10/10 300 м [Sc] +1.0 +1.0 100 -0 -0 тепло 1019.4 1016.2 +1.0 6
СВ 1 10 км {дождь, морось} 10/10 300 м [Sc] +1.2 +1.2 100 -1 -1 тепло 1020.2 1017.0 +0.8 1 18
В 1 10 км 10/10 600 м [Sc] +1.6 +1.6 100 -1 -1 тепло 1020.6 1017.4
В 1 10 км 10/10 600 м [Sc] +2.2 +2.1 99 0 0 тепло 1020.0 1016.8
В 1 200 м слаб. дождь {туман} туман 10/10 300 м [Ns] +2.0 +2.0 100 0 0 тепло 1019.3 1016.1 0.7
ЮВ 2 1000 м слаб. дождь {туман} 10/10 300 м [Ns] +2.1 +2.1 100 -1 -1 тепло 1018.4 1015.2 +2.4 1
штиль 0 1000 м слаб. дождь 10/10 300 м [Ns] +1.6 +1.6 100 0 0 тепло 1017.6 1014.4
штиль 0 200 м слаб. дождь {туман} туман 10/10 300 м [Ns] +1.1 +1.1 100 -0 -0 тепло 1017.3 1014.0
штиль 0 500 м слаб. дождь {туман} туман 10/10 300 м [Ns] +0.9 +0.9 100 -1 -1 тепло 1017.7 1014.5 +0.8 3
СЗ 1 1000 м дымка {дождь, туман} 10/10 300 м [Sc] +1.7 +1.7 100 -0 -0 тепло 1019.0 1015.8 +0.8 2 12
СЗ 3 10 км 10/10 600 м [Sc] +2.4 +2.4 100 -2 -2 по сезону 1021.1 1017.9
СЗ 2 10 км {ливн. дождь} 10/10 300 м [Cb cap] +2.9 +1.4 90 -0 -0 по сезону 1022.8 1019.6
СЗ 1 10 км 10/10 300 м [Sc] +1.7 -0.8 83 0 0 тепло 1024.4 1021.1 0.0
штиль 0 10 км 10/10 300 м [Sc] +0.6 -1.3 87 -1 -1 тепло 1025.6 1022.3 +3.0 0.0
штиль 0 10 км 10/10 300 м [Sc] +0.1 -0.8 94 -1 -1 тепло 1026.3 1023.0
Ю 1 10 км 10/10 300 м [Sc] +0.1 -0.7 94 -2 -2 тепло 1026.6 1023.3
Ю 2 10 км 10/10 300 м [Sc] +0.1 -0.4 96 -4 -4 по сезону 1026.7 1023.5 -0.1
Ю 3 10 км 10/10 300 м [Sc] +0.5 -1.8 85 -4 -4 тепло 1027.7 1024.4 -0.1 11
ЮЗ 3 10 км 10/10 600 м [Sc] +0.7 -1.6 85 -4 -4 по сезону 1028.0 1024.7
Ю 2 10 км 10/10 600 м [Sc] +1.3 -0.6 87 -2 -2 по сезону 1028.4 1025.1
штиль 0 10 км 10/10 600 м [Sc] +0.9 +0.1 94 -0 -0 тепло 1028.2 1024.9
ЮВ 1 10 км 10/10 600 м [Sc] +1.4 +0.5 94 -1 -1 тепло 1028.1 1024.8 +1.4
ЮВ 2 10 км 10/10 600 м [Sc] +1.8 +0.7 92 -2 -2 тепло 1028.5 1025.2
ЮВ 2 10 км 10 баллов +2.0 +0.5 90 -1 -1 тепло 1028.5 1025.2
Местоположение метеостанции Великий Новгород (Новгородская область, Россия): широта 58.52 долгота 31.25 высота над уровнем моря 26 м.
В архиве по умолчанию представлена погода в Великом Новгороде за последнюю неделю. Архивные данные за месяц целиком и за предыдущие месяцы, начиная с января 2011 года, Вы можете получить, выбрав интересующий диапазон дат из раскрывающегося списка и нажав кнопку "Найти!".
*Определитесь, кто Вы:
Внимание! Время в таблицах - всемирное. Для получения местного времени необходимо прибавить поправку, которая равна 3 ч.
Некоторые строки с данными для отдельных станций могут быть выделены курсивом. Это означает, что фактические данные отсутствуют по различным причинам, а приведенные значения являются расчетными модельными данными для данного пункта наблюдений.
Смотрите также архив погоды в соседних городах и на ближайших метеорологических станциях:
Партнеры нашего сайта:      
Пояснения к столбцам:
  • Ветер - указаны скорость ветра в м/с - средняя за 10 мин, порывы в срок и между сроками (в фигурных скобках) и направление, откуда дует ветер: С - северный,
  • СВ - северо-восточный, В - восточный, ЮВ - юго-восточный, Ю - южный, ЮЗ - юго-западный, З - западный, СЗ - северо-западный.
  • Видимость - горизонтальная дальность видимости в метрах или километрах. При видимости от 1 до 10 км при отсутствии осадков обычно наблюдается дымка, при ухудшении видимости до 1 км и менее - туман. В сухую погоду видимость может ухудшаться дымом, пылью или мглою.
  • Явления - указаны атмосферные явления, наблюдавшиеся в срок или в последний час перед сроком; фигурными скобками обозначены явления, наблюдавшиеся между сроками (за 1-3 часа до срока); квадратными скобками обозначены град или гололедные отложения с указанием их диаметра в мм.
  • Облачность - указаны через наклонную черту общая и нижняя облачность в баллах и высота нижней границы облаков в метрах; квадратными скобками обозначены формы облаков: Ci - перистые, Cs - перисто-слоистые, Cc - перисто-кучевые, Ac - высококучевые, As - высокослоистые, Sc - слоисто-кучевые, Ns - слоисто-дождевые, Cu - кучевые, Cb - кучево-дождевые. Подробнее классификацию облаков см. в Атласе облаков (PDF).
  • T - Температура воздуха - температура, измеренная на высоте 2 м над землей.
  • Td - Температура точки росы - температура, при понижении до которой содержащийся в воздухе водяной пар достигнет насыщения.
  • f - Относительная влажность воздуха - влажноcть воздуха, измеренная на высоте 2 м над землей.
  • Te - Эффективная температура - температура, которую ощущает одетый по сезону человек в тени. Характеристика душности погоды. При расчете учитывается влияние влажности воздуха и скорости ветра на теплоощущения человека.
  • Tes - Эффективная температура на солнце - температура, которую ощущает человек, с поправкой на солнечный нагрев. Характеристика знойности погоды. Зависит от высоты солнца над горизонтом, облачности и скорости ветра. Ночью, в пасмурную погоду, а также при ветре 12 м/с и более поправка равна нулю.
  • P - Атмосферное давление - приведенное к уровню моря атмосферное давление.
  • Po - Атмосферное давление - измеренное на уровне метеостанции атмосферное давление.
  • Tmin - Минимальная температура - минимум температуры воздуха на высоте 2 м над землей.
  • Tmax - Максимальная температура - максимум температуры воздуха на высоте 2 м над землей.
  • R - Количество осадков - Количество выпавших осадков за период времени, мм. При наведении курсора мыши на число - период времени, за который выпало указанное количество осадков.
  • R24 - Количество осадков - Количество выпавших осадков за 24 часа, мм.
  • S - Снежный покров - Высота снежного покрова, см. При наведении курсора мыши на число - состояние снежного покрова и степень покрытия местности в баллах.